This is the latest recevied weather packets stored in our database for station/object KD7JB. If no packets are shown the sender has not sent any weather packets the latest 10 day(s).
| Time | Temp. | Humidity | Pressure | Rain* | Wind** | Luminosity | Snow |
|---|---|---|---|---|---|---|---|
| 1777913874 | 18.89° C | 37% | 1173.4 hPa | 0 mm | - | 555 W/m² | - |
| 1777913266 | 18.33° C | 36% | 1173.3 hPa | 0 mm | - | 529 W/m² | - |
| 1777912659 | 18.33° C | 36% | 1173.1 hPa | 0 mm | - | 509 W/m² | - |
| 1777912356 | 18.33° C | 35% | 1172.9 hPa | 0 mm | - | 493 W/m² | - |
| 1777912052 | 18.33° C | 37% | 1173 hPa | 0 mm | - | 484 W/m² | - |
| 1777911748 | 18.33° C | 38% | 1173.1 hPa | 0 mm | - | 472 W/m² | - |
| 1777911445 | 18.89° C | 37% | 1173.3 hPa | 0 mm | - | 457 W/m² | - |
| 1777910840 | 18.33° C | 38% | 1173.1 hPa | 0 mm | - | 433 W/m² | - |
| 1777910536 | 18.33° C | 35% | 1173.1 hPa | 0 mm | - | 419 W/m² | - |
| 1777910233 | 18.33° C | 35% | 1173 hPa | 0 mm | - | 406 W/m² | - |
| 1777909324 | 18.33° C | 36% | 1173.4 hPa | 0 mm | - | 368 W/m² | - |
| 1777909022 | 17.78° C | 37% | 1173 hPa | 0 mm | - | 337 W/m² | - |
| 1777908719 | 17.78° C | 37% | 1173 hPa | 0 mm | - | 337 W/m² | - |
| 1777908416 | 17.78° C | 38% | 1173 hPa | 0 mm | - | 316 W/m² | - |
| 1777908113 | 17.78° C | 37% | 1173 hPa | 0 mm | - | 305 W/m² | - |
| 1777907201 | 17.22° C | 38% | 1173 hPa | 0 mm | - | 261 W/m² | - |
| 1777906898 | 17.22° C | 38% | 1173.1 hPa | 0 mm | - | 261 W/m² | - |
| 1777906596 | 17.22° C | 38% | 1173 hPa | 0 mm | - | 208 W/m² | - |
| 1777906291 | 17.22° C | 39% | 1172.9 hPa | 0 mm | - | 200 W/m² | - |
| 1777905988 | 16.67° C | 38% | 1172.9 hPa | 0 mm | - | 185 W/m² | - |
| 1777905685 | 17.22° C | 38% | 1172.7 hPa | 0 mm | - | 151 W/m² | - |
| 1777905381 | 17.22° C | 38% | 1173 hPa | 0 mm | - | 158 W/m² | - |
| 1777905079 | 17.22° C | 39% | 1173 hPa | 0 mm | - | 152 W/m² | - |
| 1777904170 | 16.67° C | 39% | 1172.8 hPa | 0 mm | - | 133 W/m² | - |
| 1777902956 | 16.11° C | 41% | 1172.8 hPa | 0 mm | - | 91 W/m² | - |
* Rain latest hour (hover to see other rain measurements)
** Current wind speed in m/s (hover to see current wind gust speed)